Location: Erlenbrunn
(49.1717°N, 7.6142°E)
Time: 10:02:59
(UTC+00:00)

CZ-4 R/B - Pass Details

Date: 25 November 2020
Orbit: 532 x 598 km, 97.7° (Epoch: 25 January)

Event Time Altitude Azimuth Distance (km) Brightness Sun altitude
Exits shadow 17:38:11 43° 113° (ESE) 781 1.7 -19.1°
Maximum altitude 17:39:00 52° 71° (ENE) 693 1.4 -19.2°
Drops below altitude 10° 17:42:56 10° 355° (N) 1,868 4.0 -19.9°
Sets 17:45:08 0° 351° (N) 2,782 4.9 -20.2°
